Flag for Denmark Weather past 2 weeks in Aarhus, Denmark

Now
54 °F

Sprinkles. Overcast.


Feels Like: 52 °F
Forecast: 50 / 58 °F
Wind: 6 mph from Southwest

Location: Tirstrup

Current Time: Sep 23, 2014 at 11:04:18 PM

Latest Report: Sep 23, 2014 at 10:20 PM


Visibility: 3 mi

Pressure: 29.92 "Hg

Humidity: 82%

Dew point: 48 °F

Location of AarhusLocation

Historic Weather in Aarhus — Graph

°F

Aarhus temperature yesterday

Maximum temperature yesterday: 57 °F (at 3:50 PM)
Minimum temperature yesterday: 46 °F (at 10:20 PM)
Average temperature yesterday: 51 °F

Past Weeks' High & Low Weather Summary

 TemperatureHumidityPressure
High70 °F (Sep 12, 4:20 PM)94% (Sep 10, 4:50 AM)30.36 "Hg (Sep 10, 4:50 AM)
Low36 °F (Sep 23, 7:50 AM)48% (Sep 22, 3:50 PM)29.77 "Hg (Sep 21, 11:50 PM)
Average58 °F76%30.11 "Hg
* Reported Sep 8 9:20 PM — Sep 23 9:50 PM, Aarhus, Weather by CustomWeather, © 2014

Note: Actual official high and low records may vary slightly from our data, if they occured in-between our weather recording intervals... More about our weather records

Advertising

Aarhus weather history for previous 24 hours

 ConditionsComfort  
Time TempWeatherWind HumidityBarometerVisibility
9:50 PM
Sep 23
55 °FLight rain. Overcast.6 mph77%29.92 "Hg5 mi
9:20 PM55 °FLight rain. Passing clouds.5 mph72%29.95 "HgN/A
8:50 PM55 °FPassing clouds.3 mph72%29.95 "HgN/A
8:20 PM55 °FOvercast.2 mph67%29.95 "HgN/A
7:50 PM55 °FPartly sunny.2 mph72%29.95 "HgN/A
7:20 PM55 °FSprinkles. Partly sunny.2 mph72%29.95 "HgN/A
6:50 PM57 °FPartly sunny.3 mph63%29.98 "HgN/A
6:20 PM57 °FPartly sunny.3 mph63%29.98 "HgN/A
5:50 PM57 °FScattered clouds.2 mph59%29.98 "HgN/A
5:20 PM59 °FPassing clouds.6 mph59%29.98 "HgN/A
4:50 PM59 °FPartly sunny.10 mph59%29.98 "HgN/A
4:20 PM57 °FPartly sunny.7 mph63%30.01 "HgN/A
3:50 PM57 °FPassing clouds.7 mph63%30.01 "HgN/A
3:20 PM57 °FScattered clouds.7 mph59%30.01 "HgN/A
2:50 PM59 °FPassing clouds.8 mph51%30.04 "HgN/A
2:20 PM59 °FScattered clouds.7 mph51%30.04 "HgN/A
1:50 PM57 °FScattered clouds.7 mph55%30.04 "HgN/A
1:20 PM57 °FPassing clouds.8 mph51%30.07 "HgN/A
12:20 PM57 °FScattered clouds.7 mph51%30.07 "HgN/A
11:50 AM57 °FPassing clouds.6 mph51%30.07 "HgN/A
11:20 AM55 °FRefreshingly cool.5 mph51%30.07 "HgN/A
10:50 AM55 °FRefreshingly cool.6 mph59%30.07 "HgN/A
10:20 AM54 °FCool.5 mph63%30.07 "HgN/A
9:50 AM48 °FCool.2 mph76%30.07 "HgN/A
9:20 AM45 °FPassing clouds.No wind81%30.07 "HgN/A
8:50 AM41 °FScattered clouds.1 mph87%30.07 "HgN/A
8:20 AM37 °FChilly.No wind87%30.07 "Hg6 mi
7:50 AM36 °FChilly.1 mph87%30.07 "Hg4 mi
7:20 AM37 °FChilly.1 mph81%30.07 "Hg4 mi
6:50 AM37 °FLight fog.No wind87%30.07 "Hg1 mi
6:20 AM37 °FChilly.No wind87%30.07 "Hg3 mi
5:50 AM37 °FChilly.1 mph87%30.07 "Hg4 mi
5:20 AM39 °FChilly.1 mph81%30.07 "Hg4 mi
4:50 AM41 °FFog.3 mph81%30.07 "Hg2 mi
4:20 AM41 °FQuite cool.No wind81%30.07 "Hg5 mi
3:50 AM41 °FQuite cool.No wind81%30.07 "HgN/A
3:20 AM43 °FPassing clouds.3 mph76%30.07 "HgN/A
2:50 AM43 °FPassing clouds.5 mph81%30.07 "HgN/A
2:20 AM43 °FQuite cool.6 mph81%30.07 "HgN/A
1:50 AM43 °FQuite cool.3 mph76%30.07 "HgN/A
1:20 AM45 °FQuite cool.6 mph76%30.07 "HgN/A
12:50 AM45 °FQuite cool.5 mph76%30.07 "HgN/A
12:20 AM46 °FPassing clouds.2 mph71%30.07 "HgN/A
11:50 PM
Sep 22
46 °FCool.6 mph71%30.07 "HgN/A
11:20 PM46 °FPassing clouds.7 mph71%30.07 "HgN/A
Weather by CustomWeather, © 2014

See weather overviewHow to use our weather pages